• In Uzbekistan
  • List of Countries
  • For 7 days
  • Water Temperature
  • Satellite Maps
  • Weather Map
  • Weather Widgets
  • user-avatar
    Login

    Hourly Weather Debrecen

    Today, 25 September, Tuesday

    Time Temperature Precipitation Wind Pressure Humidity
    00:00 +8°C° 0 mm 3 mps 758 mmHg 60%
    01:00 +7°C° 0 mm 3 mps 758 mmHg 64%
    02:00 +7°C° 0 mm 3 mps 758 mmHg 65%
    03:00 +6°C° 0 mm 2 mps 759 mmHg 67%
    04:00 +6°C° 0 mm 2 mps 759 mmHg 69%
    05:00 +7°C° 0 mm 2 mps 759 mmHg 67%
    06:00 +7°C° 0 mm 2 mps 760 mmHg 65%
    07:00 +8°C° 0 mm 3 mps 760 mmHg 63%
    08:00 +10°C° 0 mm 3 mps 761 mmHg 55%
    09:00 +11°C° 0 mm 4 mps 761 mmHg 48%
    10:00 +13°C° 0 mm 4 mps 761 mmHg 41%
    11:00 +13°C° 0 mm 4 mps 761 mmHg 38%
    12:00 +14°C° 0 mm 4 mps 762 mmHg 36%
    13:00 +14°C° 0 mm 4 mps 762 mmHg 34%
    14:00 +14°C° 0 mm 4 mps 762 mmHg 34%
    15:00 +14°C° 0 mm 4 mps 762 mmHg 34%
    16:00 +14°C° 0 mm 4 mps 762 mmHg 34%
    17:00 +13°C° 0 mm 3 mps 763 mmHg 38%
    18:00 +11°C° 0 mm 3 mps 763 mmHg 42%
    19:00 +10°C° 0 mm 2 mps 764 mmHg 45%
    20:00 +9°C° 0 mm 2 mps 765 mmHg 49%
    21:00 +9°C° 0 mm 3 mps 765 mmHg 52%
    22:00 +8°C° 0 mm 3 mps 766 mmHg 55%
    23:00 +8°C° 0 mm 3 mps 766 mmHg 57%

    Tomorrow, 26 September, Wednesday

    Time Temperature Precipitation Wind Pressure Humidity
    00:00 +7°C° 0 mm 3 mps 766 mmHg 59%
    01:00 +7°C° 0 mm 3 mps 766 mmHg 62%
    02:00 +5°C° 0 mm 3 mps 767 mmHg 63%
    03:00 +5°C° 0 mm 3 mps 767 mmHg 65%
    04:00 +5°C° 0 mm 3 mps 767 mmHg 66%
    05:00 +5°C° 0 mm 3 mps 767 mmHg 64%
    06:00 +7°C° 0 mm 3 mps 767 mmHg 62%
    07:00 +7°C° 0 mm 3 mps 767 mmHg 59%
    08:00 +9°C° 0 mm 3 mps 767 mmHg 51%
    09:00 +11°C° 0 mm 3 mps 767 mmHg 43%
    10:00 +13°C° 0 mm 3 mps 767 mmHg 35%
    11:00 +14°C° 0 mm 3 mps 767 mmHg 33%
    12:00 +14°C° 0 mm 3 mps 766 mmHg 30%
    13:00 +16°C° 0 mm 2 mps 766 mmHg 28%
    14:00 +16°C° 0 mm 2 mps 766 mmHg 28%
    15:00 +16°C° 0 mm 2 mps 765 mmHg 29%
    16:00 +16°C° 0 mm 2 mps 765 mmHg 30%
    17:00 +14°C° 0 mm 2 mps 765 mmHg 33%
    18:00 +13°C° 0 mm 1 mps 765 mmHg 37%
    19:00 +11°C° 0 mm 1 mps 765 mmHg 40%
    20:00 +11°C° 0 mm 1 mps 765 mmHg 41%
    21:00 +9°C° 0 mm 2 mps 765 mmHg 42%
    22:00 +9°C° 0 mm 2 mps 765 mmHg 42%
    23:00 +9°C° 0 mm 2 mps 765 mmHg 43%

    Day after tomorrow, 27 September, Thursday

    Time Temperature Precipitation Wind Pressure Humidity
    00:00 +8°C° 0 mm 2 mps 765 mmHg 43%
    01:00 +8°C° 0 mm 2 mps 765 mmHg 43%
    02:00 +8°C° 0 mm 2 mps 765 mmHg 44%
    03:00 +8°C° 0 mm 2 mps 764 mmHg 44%
    04:00 +7°C° 0 mm 2 mps 764 mmHg 45%
    05:00 +8°C° 0 mm 2 mps 764 mmHg 44%
    06:00 +9°C° 0 mm 3 mps 764 mmHg 43%
    07:00 +9°C° 0 mm 3 mps 764 mmHg 42%
    08:00 +12°C° 0 mm 3 mps 764 mmHg 38%
    09:00 +14°C° 0 mm 3 mps 764 mmHg 35%
    10:00 +17°C° 0 mm 3 mps 763 mmHg 31%
    11:00 +18°C° 0 mm 3 mps 763 mmHg 29%
    12:00 +19°C° 0 mm 3 mps 763 mmHg 27%
    13:00 +20°C° 0 mm 3 mps 762 mmHg 25%
    14:00 +20°C° 0 mm 2 mps 762 mmHg 26%
    15:00 +20°C° 0 mm 2 mps 761 mmHg 27%
    16:00 +21°C° 0 mm 1 mps 761 mmHg 28%
    17:00 +19°C° 0 mm 1 mps 761 mmHg 30%
    18:00 +18°C° 0 mm 1 mps 761 mmHg 32%
    19:00 +15°C° 0 mm 1 mps 761 mmHg 33%
    20:00 +14°C° 0 mm 1 mps 761 mmHg 34%
    21:00 +14°C° 0 mm 1 mps 760 mmHg 35%
    22:00 +13°C° 0 mm 2 mps 760 mmHg 35%
    23:00 +13°C° 0 mm 1 mps 760 mmHg 36%

    28 September, Friday

    Time Temperature Precipitation Wind Pressure Humidity
    00:00 +13°C° 0 mm 1 mps 759 mmHg 37%
    01:00 +12°C° 0 mm 1 mps 759 mmHg 38%
    02:00 +12°C° 0 mm 1 mps 758 mmHg 39%
    03:00 +12°C° 0 mm 1 mps 758 mmHg 39%
    04:00 +11°C° 0 mm 1 mps 758 mmHg 40%
    05:00 +12°C° 0 mm 1 mps 757 mmHg 40%
    06:00 +13°C° 0 mm 1 mps 757 mmHg 41%
    07:00 +13°C° 0 mm 1 mps 757 mmHg 41%
    08:00 +15°C° 0 mm 1 mps 757 mmHg 37%
    09:00 +18°C° 0 mm 2 mps 756 mmHg 33%
    10:00 +20°C° 0 mm 2 mps 756 mmHg 29%
    11:00 +21°C° 0 mm 2 mps 756 mmHg 28%
    12:00 +23°C° 0 mm 2 mps 755 mmHg 26%
    13:00 +24°C° 0 mm 2 mps 754 mmHg 25%
    14:00 +24°C° 0 mm 2 mps 754 mmHg 27%
    15:00 +24°C° 0 mm 1 mps 753 mmHg 29%
    16:00 +24°C° 0 mm 1 mps 753 mmHg 31%
    17:00 +22°C° 0 mm 1 mps 753 mmHg 33%
    18:00 +20°C° 0 mm 1 mps 753 mmHg 35%
    19:00 +18°C° 0 mm 1 mps 753 mmHg 37%
    20:00 +18°C° 0 mm 1 mps 753 mmHg 39%
    21:00 +16°C° 0 mm 1 mps 753 mmHg 40%
    22:00 +16°C° 0 mm 1 mps 753 mmHg 42%
    23:00 +15°C° 0 mm 1 mps 753 mmHg 44%

    29 September, Saturday

    Time Temperature Precipitation Wind Pressure Humidity
    00:00 +15°C° 0 mm 1 mps 752 mmHg 46%
    01:00 +14°C° 0 mm 1 mps 752 mmHg 48%
    02:00 +14°C° 0 mm 1 mps 752 mmHg 50%
    03:00 +13°C° 0 mm 1 mps 752 mmHg 53%
    04:00 +12°C° 0 mm 2 mps 752 mmHg 56%
    05:00 +13°C° 0 mm 2 mps 752 mmHg 58%
    06:00 +12°C° 0 mm 3 mps 752 mmHg 60%
    07:00 +13°C° 0 mm 4 mps 752 mmHg 61%
    08:00 +14°C° 0 mm 5 mps 753 mmHg 57%
    09:00 +16°C° 0 mm 6 mps 753 mmHg 52%
    10:00 +18°C° 0 mm 7 mps 753 mmHg 47%
    11:00 +18°C° 0 mm 7 mps 753 mmHg 46%
    12:00 +18°C° 0 mm 7 mps 753 mmHg 44%
    13:00 +20°C° 0 mm 8 mps 753 mmHg 43%
    14:00 +18°C° 0 mm 7 mps 753 mmHg 42%
    15:00 +18°C° 0 mm 7 mps 753 mmHg 42%
    16:00 +17°C° 0 mm 7 mps 753 mmHg 42%
    17:00 +16°C° 0 mm 6 mps 754 mmHg 45%
    18:00 +14°C° 0 mm 6 mps 754 mmHg 48%
    19:00 +13°C° 0 mm 6 mps 755 mmHg 51%
    20:00 +11°C° 0 mm 6 mps 755 mmHg 54%
    21:00 +11°C° 0 mm 6 mps 755 mmHg 56%
    22:00 +10°C° 0 mm 6 mps 755 mmHg 59%
    23:00 +9°C° 0 mm 6 mps 755 mmHg 62%

    30 September, Sunday

    Time Temperature Precipitation Wind Pressure Humidity
    00:00 +9°C° 0 mm 5 mps 755 mmHg 65%
    01:00 +8°C° 0 mm 5 mps 755 mmHg 69%
    02:00 +8°C° 0 mm 5 mps 755 mmHg 70%
    03:00 +8°C° 0 mm 5 mps 755 mmHg 72%
    04:00 +7°C° 0 mm 4 mps 755 mmHg 73%
    05:00 +8°C° 0 mm 4 mps 755 mmHg 71%
    06:00 +8°C° 0 mm 4 mps 755 mmHg 69%
    07:00 +10°C° 0 mm 4 mps 755 mmHg 67%
    08:00 +12°C° 0 mm 4 mps 755 mmHg 61%
    09:00 +15°C° 0 mm 4 mps 755 mmHg 55%
    10:00 +18°C° 0 mm 4 mps 755 mmHg 49%
    11:00 +19°C° 0 mm 4 mps 755 mmHg 46%
    12:00 +20°C° 0 mm 3 mps 755 mmHg 44%
    13:00 +21°C° 0 mm 3 mps 754 mmHg 42%
    14:00 +21°C° 0 mm 3 mps 754 mmHg 43%
    15:00 +20°C° 0 mm 2 mps 754 mmHg 45%
    16:00 +20°C° 0 mm 2 mps 753 mmHg 46%
    17:00 +19°C° 0 mm 2 mps 753 mmHg 51%
    18:00 +18°C° 0 mm 1 mps 753 mmHg 56%
    19:00 +15°C° 0 mm 1 mps 754 mmHg 61%
    20:00 +15°C° 0 mm 1 mps 753 mmHg 63%
    21:00 +15°C° 0 mm 1 mps 753 mmHg 64%
    22:00 +14°C° 0 mm 1 mps 753 mmHg 66%
    23:00 +14°C° 0 mm 1 mps 753 mmHg 66%
    Show more